Location: Unspecified
(0.0000°N, 0.0000°E)
Time: 21:08:22
(UTC+00:00)

Alouette 1 - Pass Details

Date: 23 October 2021
Orbit: 985 x 1019 km, 80.5° (Epoch: 07 December)

Event Time Altitude Azimuth Distance (km) Brightness Sun altitude
Rises 18:38:02 0° 356° (N) 3,738 9.0 -13.2°
Reaches altitude 10° 18:40:35 10° 358° (N) 2,787 8.3 -13.8°
Maximum altitude 18:47:01 81° 85° (E) 1,023 6.0 -15.4°
Drops below altitude 10° 18:53:25 10° 171° (S) 2,775 8.4 -16.9°
Sets 18:55:57 0° 172° (S) 3,722 9.1 -17.5°
